TITAN 3C TRANSTAGE DEB, 5998

Orbit data source: Space-Track

TITAN 3C TRANSTAGE DEB, 5998 is space debris in HEO originally from a launch on Tue, 21 Dec 1965 UTC launched from the Air Force Eastern Test Range (AFETR). Debris objects in space refer to the collection of defunct objects orbiting the Earth. Examples of debris include non-operational satellites, rocket bodies, and fragments generated from explosions, collisions, or faulty payload assembly.

Loading next visibility...
Identifier
5998, 1965-108T
Orbit
HEO
Country
Flag of USUS
Related business
Manufacturer
Unknown
Mission
Spacecraft
Bus & Motor
Unknown
Mass
Unknown
Launch date (UTC)
1965-12-21 (60 years ago)
Launch vehicle
Unknown
Launch site
Air Force Eastern Test Range (AFETR)
Object type
Payload
Rocket body
Debris
Shape & HBR
Unknown shape, 0.2 m
Radar Cross Section
Medium (>0.1 m² and <1 m²)

Expand to show TLE details & history
Last TLE update: 7 hours ago

TLE from 7 hours ago
0 TITAN 3C TRANSTAGE DEB
1 05998U 65108T   26104.87904708  .00001086  00000-0  72209-2 0  9994
2 05998  26.5063  64.5457 6555462  55.1933 355.5483  3.03410635146802
Epoch: 2026-04-14T21:05Z
TLE epoch observation values (Epoch: 2026-04-14T21:05:49.667Z)
Latitude
12.03316°
Longitude
-69.84329°
Altitude
903.126 km
Speed
9.472 km/s
True Right ascension
05h 58m 39s
True Declination
11° 57' 53"
Sunlit
Object was in daylight at epoch
Visualization orbit readout
Latitude
Unknown
Longitude
Unknown
Altitude
Unknown
Speed
Unknown
Apparent Right ascension
Unknown
Apparent Declination
Unknown
Sunlit
N/A
Visualization observer readout
Local Sidereal Time
10:29:24
Azimuth
Unknown
Elevation
Unknown
Doppler factor
Unknown
Orbital elements
Apogee altitude
26,995.194 km
Perigee altitude
565.536 km
Semi-major axis
20,158.502 km
Eccentricity
0.65555
Inclination
26.5063°
RAAN
64.5457°
Arg. of periapsis
55.1933°
True anomaly
332.52554°
Mean anomaly
355.5483°
Eccentric anomaly
347.27468°
Mean motion
0.75833 °/min
Orbital period
474.73 mins
BSTAR
0.0072209
Loading maneuver chart data...
Computing Atmospheric mass density...

Documentation

Showing up to 5 results
|